This is the latest recevied weather packets stored in our database for station/object KC3JUG-13. If no packets are shown the sender has not sent any weather packets the latest 10 day(s).
| Time | Temp. | Humidity | Pressure | Rain* | Wind** | Luminosity | Snow |
|---|---|---|---|---|---|---|---|
| 1788154773 | 70° F | 96% | 765.6 mmHg | 0 in | - | - | - |
| 1788153993 | 70° F | 96% | 765.6 mmHg | 0 in | - | - | - |
| 1788153213 | 70° F | 96% | 765.7 mmHg | 0 in | - | - | - |
| 1788152433 | 70° F | 96% | 765.7 mmHg | 0 in | - | - | - |
| 1788151653 | 70° F | 96% | 765.7 mmHg | 0 in | - | - | - |
| 1788151016 | 70° F | 95% | 765.6 mmHg | 0 in | - | - | - |
| 1788150873 | 70° F | 95% | 765.6 mmHg | 0 in | - | - | - |
| 1788150093 | 70° F | 94% | 765.7 mmHg | 0 in | - | - | - |
| 1788149313 | 70° F | 94% | 765.7 mmHg | 0 in | - | - | - |
| 1788148533 | 71° F | 94% | 765.8 mmHg | 0 in | - | - | - |
| 1788147753 | 71° F | 94% | 765.8 mmHg | 0 in | - | - | - |
| 1788146973 | 71° F | 94% | 765.8 mmHg | 0 in | - | - | - |
| 1788146193 | 71° F | 93% | 766 mmHg | 0 in | - | - | - |
| 1788145413 | 71° F | 92% | 766 mmHg | 0 in | - | - | - |
| 1788144633 | 71° F | 91% | 766 mmHg | 0 in | - | - | - |
| 1788143854 | 72° F | 90% | 766.2 mmHg | 0 in | - | - | - |
| 1788143073 | 72° F | 88% | 766.3 mmHg | 0 in | - | - | - |
| 1788142294 | 72° F | 91% | 766.2 mmHg | 0 in | - | - | - |
| 1788141514 | 73° F | 91% | 766 mmHg | 0 in | - | - | - |
| 1788140734 | 73° F | 92% | 766.2 mmHg | 0 in | - | - | - |
| 1788139954 | 74° F | 91% | 766 mmHg | 0 in | - | - | - |
| 1788139174 | 74° F | 90% | 766 mmHg | 0 in | - | - | - |
| 1788138394 | 75° F | 90% | 765.7 mmHg | 0 in | - | - | - |
| 1788137614 | 75° F | 92% | 765.6 mmHg | 0 in | - | - | - |
| 1788136834 | 76° F | 91% | 765.5 mmHg | 0 in | - | - | - |
* Rain latest hour (hover to see other rain measurements)
** Current wind speed in m/s (hover to see current wind gust speed)